CAPE
23 12 10 0 0 0 0 0 0 0 0 0 0 0 0 0 0 0 0 0 0 0 0 0 0 0 0 0 0 0 0 0 0 0 4 0 8 19 18 7 0 0 11 11
24 19 14 0 0 0 0 0 0 35 3 0 0 0 0 0 0 0 0 0 0 0 0 0 0 0 0 0 0 0 0 0 0 0 0 0 2 19 0 0 0 1 0 0
33 20 14 0 0 0 0 0 12 163 105 47 3 0 0 0 0 0 0 0 0 0 0 0 0 0 0 0 0 0 0 0 0 0 0 0 10 26 0 0 0 3 0 0
32 22 13 0 0 0 0 0 47 0 3 96 182 32 0 0 0 0 0 0 0 0 0 0 0 0 0 0 0 0 0 0 0 4 48 6 111 10 0 0 0 0 0 0
35 27 19 3 0 0 0 0 19 88 55 89 137 270 0 0 0 0 0 0 0 0 0 27 0 0 0 0 0 0 0 0 0 0 2 8 12 0 0 0 0 0 0 22
35 38 18 12 2 0 0 0 0 24 2 140 130 181 0 0 0 0 0 0 0 0 64 31 15 0 0 0 0 0 0 0 0 0 0 11 15 2 3 0 0 0 50 186
26 32 27 21 8 6 6 0 0 0 0 0 43 196 388 464 1 0 0 3 159 123 32 14 6 0 0 0 0 0 0 0 0 0 0 38 0 0 0 49 367 261 231 539
21 30 32 25 16 4 1 0 0 0 0 0 13 1 201 423 263 106 248 293 94 0 0 6 5 1 0 0 0 0 0 0 0 0 27 31 0 0 0 1 278 593 1119 1391
23 23 17 23 17 10 0 0 0 0 3 8 0 0 217 156 183 333 182 153 34 1 0 4 58 6 5 0 0 0 0 0 0 0 8 0 20 0 0 1 761 1032 1369 1456
17 21 19 16 21 13 4 0 0 0 1 0 0 0 106 19 13 416 189 0 54 4 2 0 0 0 5 0 0 0 0 0 0 0 5 0 77 1 0 0 0 1054 1338 1328
39 28 24 32 7 21 14 0 0 0 2 0 0 0 0 0 5 50 50 73 43 34 0 8 0 0 1 0 0 0 0 0 0 0 0 0 9 0 0 38 248 933 1225 1285
60 43 32 36 24 24 13 0 0 0 0 0 0 0 0 0 0 0 0 115 125 361 335 405 598 625 0 0 0 0 0 0 0 0 41 154 199 149 70 363 1186 1747 1617 1507
71 56 36 64 41 41 8 0 0 0 0 0 0 0 0 0 0 0 0 0 0 0 3 149 491 711 503 69 0 0 0 0 0 0 44 160 7 32 101 942 1861 1728 1546 1429
76 49 39 37 32 18 0 0 0 0 0 0 0 0 0 0 0 0 0 0 0 0 0 20 240 287 98 109 170 89 0 0 0 19 1 327 278 116 460 824 1672 1561 1399 1353
43 30 33 28 27 0 0 0 0 0 3 0 0 0 0 0 0 0 0 0 0 0 0 0 43 28 0 37 105 179 164 69 1 0 1012 864 213 273 355 376 1197 1354 1372 1353
61 32 16 13 10 0 0 4 0 0 0 0 0 0 0 0 0 0 0 0 0 0 0 0 0 0 2 129 265 248 6 0 0 840 528 511 229 267 208 235 818 1262 1350 1337
20 13 0 0 0 0 0 0 0 0 0 0 0 0 0 0 0 0 0 0 0 0 0 0 0 0 11 67 70 72 10 0 4 20 319 74 28 29 625 724 1256 1401 1365 1055
10 10 7 0 0 0 0 0 0 0 0 0 0 9 4 0 0 0 0 0 0 0 0 0 0 0 52 186 392 202 236 373 562 738 1040 263 686 813 757 1546 1410 1215 1078 945
30 13 0 0 0 4 10 0 0 0 0 0 0 2 72 0 1 1 0 0 0 0 0 0 0 0 1 210 853 555 415 395 329 977 1347 653 661 237 65 106 1484 1208 1076 1181
16 0 4 24 23 0 0 0 0 0 0 0 0 0 7 67 32 11 19 0 0 0 0 0 0 0 0 8 107 537 751 596 361 1043 1003 975 1080 369 3 0 1201 1148 1213 1026
54 68 7 0 0 3 28 18 6 0 0 0 0 0 0 16 109 135 95 77 7 0 0 0 0 0 0 0 0 0 44 289 471 737 755 870 1085 1364 1594 1278 1006 779 929 916
0 0 0 0 10 31 9 4 4 0 0 0 0 0 0 0 85 120 117 83 48 0 0 1 0 0 0 0 0 0 0 33 146 525 568 745 1220 1851 961 2 724 964 1046 1054
3 12 1 42 26 1 1 2 1 2 128 153 134 0 0 2 22 97 71 39 40 25 3 0 0 0 163 0 4 39 7 90 73 355 554 676 933 1872 1368 1032 935 913 952 862
2 11 1 3 5 0 0 1 41 172 189 140 99 76 113 45 5 23 27 44 63 21 0 0 0 59 0 24 614 123 0 0 6 139 242 357 1916 1619 1086 1030 910 859 805 562
12 29 4 1 0 21 34 69 77 49 73 93 135 57 40 71 71 19 10 18 28 23 0 23 680 951 932 356 458 839 366 99 198 24 101 1164 1385 853 730 664 603 614 455 317
3 2 1 0 0 9 38 83 104 54 40 53 74 27 42 29 91 66 17 0 16 60 60 290 711 692 680 1097 1780 776 320 55 0 481 267 1248 751 557 546 496 446 346 292 316
19 22 21 13 3 0 0 8 25 1 27 22 34 13 1 54 33 7 40 0 0 2 0 246 934 531 585 1000 1284 1630 2113 1974 1960 2111 1558 1026 525 445 573 448 417 504 299 89
CIN
0 0 0 0 0 0 0 0 0 0 0 0 0 0 0 0 0 0 0 0 0 0 0 0 0 0 0 0 0 0 0 0 0 0 -61 -23 -33 -25 -90 -106 -5 0 -100 -105
0 0 -1 0 0 0 0 0 0 -82 -12 0 0 0 0 0 0 0 0 0 0 0 0 0 0 0 0 0 0 0 0 0 0 0 0 -34 -4 -120 0 0 0 -30 0 0
0 0 -1 0 0 0 0 0 -16 -188 -120 -61 -12 0 0 0 0 0 0 0 0 0 0 0 0 0 0 0 0 0 0 0 0 0 0 0 -69 -91 0 0 -166 -48 0 0
0 0 -1 0 0 0 0 0 -11 0 -27 -68 -15 -38 -3 0 0 0 0 0 0 0 0 0 0 0 0 0 0 0 0 0 0 -76 -30 -23 -17 -132 0 0 0 0 0 0
0 0 0 -1 0 0 0 0 -12 -71 -183 -182 -129 -73 0 0 0 0 0 0 0 0 0 -91 0 0 0 0 0 0 0 0 0 0 -21 -71 -46 0 -1 0 0 -32 0 -234
0 0 0 -1 -3 0 0 0 0 -161 -261 -138 -60 -39 0 0 0 0 0 0 0 0 -136 -165 -160 0 0 0 0 0 0 0 0 0 0 -156 -18 -19 -35 0 0 0 -128 -99
0 0 0 0 -1 -3 0 0 0 0 0 0 -79 -39 -5 -40 -48 0 0 -57 -78 -125 -180 -171 -122 0 0 0 0 0 0 0 0 0 -17 -43 0 0 0 -21 -56 -72 -101 -97
0 0 0 0 0 -3 0 0 0 0 0 0 -84 -20 -99 -166 -241 -41 -37 -44 -128 -5 0 -114 -83 -37 -5 0 0 0 0 0 0 -1 -55 -26 0 0 0 -5 -56 -76 -94 -117
-1 0 0 0 0 -2 0 0 0 0 0 -16 0 0 -68 -163 -171 -27 -59 -83 -183 -35 -35 -126 -50 -57 -25 0 0 0 0 0 0 -6 -8 -16 -21 -1 0 -61 -54 -82 -119 -134
-5 -3 0 0 0 -1 0 0 0 0 0 0 0 0 -50 -141 -247 -77 -32 0 -127 -221 -137 0 -16 0 -40 0 0 0 0 0 0 0 -14 0 -9 -29 0 0 0 -86 -144 -165
-6 -4 -2 0 -1 0 0 0 0 0 -1 0 0 0 0 0 -77 -73 -204 -75 -113 -179 0 -121 0 0 -12 0 0 0 0 0 0 0 0 0 -29 -2 0 -67 -137 -101 -143 -157
-4 -5 -1 0 0 0 0 0 0 0 -1 0 0 0 0 0 0 0 0 -131 -212 -135 -180 -206 -184 -92 0 0 0 0 0 0 0 0 -64 -97 -127 -73 -128 -145 -180 -200 -233 -237
-4 -3 -2 0 0 0 0 0 0 0 0 0 0 0 0 0 0 0 0 0 0 0 -39 -338 -224 -64 -113 -93 0 0 0 0 0 0 -16 -72 -100 -103 -75 -140 -209 -225 -253 -258
-1 -2 0 -3 -3 0 0 0 0 0 0 0 0 0 0 0 0 0 0 0 0 0 0 -136 -244 -148 -166 -157 -116 -57 0 0 0 -127 -17 -50 -79 -67 -64 -126 -160 -191 -230 -260
-9 -9 -4 -9 -14 0 0 0 0 0 -5 0 0 0 0 0 0 0 0 0 0 0 0 0 -260 -274 0 -239 -185 -61 -81 -120 -19 0 -75 -140 -134 -86 -110 -74 -119 -178 -220 -250
-10 -8 -9 -16 -28 0 0 -3 0 0 0 0 0 0 0 0 0 0 0 0 0 0 0 0 0 0 -313 -221 -164 -120 -160 0 0 -106 -92 -74 -48 -91 -77 -119 -117 -152 -196 -263
-7 -11 0 0 0 0 0 0 0 0 0 0 0 0 0 0 0 0 0 0 0 0 0 0 0 0 -173 -299 -265 -237 -273 0 -83 -254 -141 -74 -48 -86 -61 -91 -166 -188 -251 -366
-13 -20 -23 0 0 0 0 0 0 0 0 0 0 -36 -6 0 0 0 0 0 0 0 0 0 0 0 -340 -282 -206 -190 -194 -258 -209 -189 -177 -87 -205 -191 -116 -186 -239 -284 -338 -402
-9 -16 -1 0 0 -8 -6 0 0 0 -3 0 0 -14 -14 0 -7 -17 0 0 0 0 0 0 0 0 -84 -312 -163 -191 -227 -257 -314 -216 -174 -132 -289 -488 -604 -524 -154 -319 -382 -397
-46 0 -3 -1 -6 0 0 0 0 0 0 0 0 0 -50 -23 -25 -33 -28 -1 0 0 0 0 0 0 0 -249 -425 -253 -186 -163 -290 -195 -297 -242 -148 -365 -286 0 -157 -242 -413 -511
-5 -1 -6 0 0 -7 -2 0 -1 0 0 0 0 0 0 -53 -8 -27 -63 -25 -7 0 0 0 0 0 0 0 0 0 -450 -357 -242 -164 -244 -270 -205 -90 -160 -192 -151 -269 -439 -499
0 0 0 -1 -9 0 0 0 -2 0 0 0 0 0 0 0 -26 -20 -31 -25 -26 0 0 -3 0 0 0 0 0 0 0 -485 -340 -224 -247 -315 -238 -64 -334 -103 -474 -331 -395 -450
-1 -1 -7 -2 -4 0 -1 0 0 -5 -7 -6 -16 0 0 -18 -46 -15 -30 -19 -13 -20 -12 0 0 0 -139 0 -36 -393 -419 -431 -389 -319 -270 -305 -313 -101 -248 -280 -274 -342 -449 -413
-4 -1 -2 -2 -2 0 0 -4 -1 -12 -14 -39 -32 -8 -9 -14 -9 -14 -1 -17 -21 -3 0 0 0 -83 0 -117 -101 -199 0 0 -299 -370 -345 -310 -120 -117 -213 -307 -400 -427 -391 -404
0 0 -4 -1 0 -2 -5 -4 -14 -13 -16 -4 -21 -12 -18 -8 -8 -7 -5 -2 -2 -5 0 -16 -67 -76 -118 -174 -126 -70 -68 -213 -239 -127 -287 -188 -138 -208 -297 -389 -398 -395 -419 -385
0 0 -1 -3 0 -2 -1 -8 -11 -9 -3 -12 -3 -3 -1 -4 -3 -2 -1 0 -1 -16 -30 -26 -46 -86 -106 -107 -44 -85 -99 -167 0 -91 -208 -135 -171 -214 -303 -340 -343 -381 -335 -289
0 0 -5 -4 -3 0 0 -4 -1 -10 -8 -1 -1 0 0 -6 -1 -2 -3 0 0 -90 0 -28 -45 -78 -79 -68 -82 -64 -39 -87 -93 -74 -101 -140 -177 -187 -115 -203 -257 -272 -360 -495
Wind_Speed
13 15 16 17 20 25 10 5 5 8 13 7 5 11 10 14 26 22 25 22 25 20 21 16 20 13 17 18 15 15 10 4 5 14 9 9 6 4 9 6 6 3 4 5
15 15 15 14 15 13 7 6 6 2 6 9 10 13 21 24 22 27 22 19 27 17 19 13 18 18 17 15 20 11 9 4 4 5 3 4 3 6 6 8 7 8 7 4
15 15 14 13 12 11 6 5 4 5 4 7 15 16 20 23 23 28 30 30 28 14 7 14 15 19 17 18 18 14 9 7 7 7 11 8 7 6 7 9 6 2 5 8
14 15 13 13 13 11 3 5 2 4 3 8 14 17 19 16 24 27 27 28 21 11 5 6 13 16 10 12 18 8 9 7 2 5 3 2 10 17 13 8 6 7 13 13
14 15 14 14 15 21 5 5 4 2 6 7 11 17 9 31 32 23 22 10 17 10 6 4 19 11 7 11 5 8 6 3 3 5 5 4 9 20 15 14 10 4 9 8
14 14 14 13 14 15 4 6 7 3 6 4 10 16 23 28 34 27 12 8 5 5 6 8 10 3 8 10 9 5 6 7 4 6 7 12 11 10 18 9 8 9 17 13
13 13 14 13 11 8 5 4 6 5 7 7 12 22 26 26 23 17 15 6 1 5 7 9 9 4 6 15 9 8 6 7 4 5 2 7 4 6 11 14 20 18 18 13
14 13 14 14 12 10 6 4 4 5 8 10 15 20 21 20 26 1 9 12 5 8 6 1 2 1 4 12 13 9 10 6 4 6 3 6 1 2 5 13 13 20 22 23
15 13 13 14 14 12 7 9 7 7 6 4 19 20 9 6 19 2 7 7 7 7 2 2 1 4 5 5 7 10 9 7 7 6 5 8 9 5 7 13 6 24 27 25
14 14 13 15 14 13 7 8 8 5 8 11 12 12 4 4 15 7 5 6 4 2 4 2 1 1 6 2 8 7 4 2 8 4 3 5 1 9 10 10 10 23 26 24
14 12 13 13 13 14 7 9 12 4 7 16 16 16 9 8 9 7 9 6 4 4 3 2 3 2 2 3 1 7 5 6 5 4 4 6 2 6 11 10 7 20 20 15
13 11 12 14 12 12 10 5 9 9 4 12 21 21 18 16 13 9 7 6 12 5 5 6 5 5 1 7 5 2 4 7 5 9 8 7 4 8 7 12 20 21 24 25
13 12 11 12 12 12 8 6 7 8 6 11 9 9 12 14 11 6 4 5 9 7 6 3 3 2 3 2 6 6 5 5 3 7 3 9 7 7 7 21 25 23 26 24
12 12 11 12 12 12 11 4 7 7 6 5 2 13 7 14 9 11 8 5 7 8 4 2 2 3 5 4 2 2 6 7 5 2 6 1 5 10 13 19 25 26 25 26
11 10 10 12 12 13 9 7 7 8 6 5 9 17 8 5 2 5 3 3 5 3 5 3 3 4 6 5 2 2 7 6 5 6 3 7 5 9 13 16 23 26 24 21
9 7 8 10 12 13 6 2 3 7 7 4 5 5 9 5 5 4 5 3 3 1 2 3 4 6 4 3 3 5 16 20 9 3 6 7 10 9 8 9 22 22 24 23
9 9 10 11 12 4 4 3 4 9 6 4 5 4 4 5 4 1 0 3 1 0 2 2 2 4 6 3 2 9 13 12 13 12 9 4 2 7 12 18 20 22 20 19
11 12 13 15 17 14 5 0 6 1 4 4 4 5 2 5 2 3 3 2 1 2 2 4 1 3 2 3 3 7 8 12 12 14 16 3 18 15 13 26 26 25 21 20
14 14 18 5 3 2 2 7 7 3 3 4 3 4 3 1 2 2 3 4 3 3 3 3 3 2 6 3 4 5 5 5 6 12 12 12 15 18 18 19 9 24 20 18
14 5 2 3 3 3 6 2 2 3 4 4 4 4 5 4 2 3 4 3 3 4 5 3 3 8 7 8 3 4 7 6 8 7 12 13 9 11 13 17 25 18 19 19
1 3 2 4 2 3 2 3 3 3 3 4 4 5 5 6 2 2 3 0 3 2 3 5 4 5 11 12 14 5 6 9 9 6 5 6 8 4 22 20 10 14 20 19
6 5 6 4 2 2 2 3 4 5 4 5 4 5 4 4 3 3 4 4 3 3 2 3 5 1 5 9 15 15 7 7 10 7 8 8 4 7 19 20 21 19 18 19
4 2 4 2 2 2 3 3 3 3 4 2 3 5 4 2 2 3 2 2 4 3 3 4 1 4 6 9 8 9 8 8 8 8 7 9 10 17 21 22 20 22 20 18
2 3 4 4 4 5 5 6 4 4 4 5 6 2 3 1 2 1 4 5 3 4 4 4 4 3 10 9 8 11 14 10 9 8 8 10 7 13 13 18 21 22 20 18
3 4 4 7 7 3 3 2 2 2 4 4 3 2 3 2 3 4 2 3 5 4 5 3 5 8 11 5 7 8 8 7 6 7 8 3 14 15 15 17 17 16 16 19
4 5 5 6 7 6 1 4 4 4 2 4 2 1 2 3 3 4 7 5 7 2 3 3 5 8 12 14 8 7 7 7 9 7 9 16 18 18 18 17 16 16 18 16
4 4 3 4 6 8 7 5 2 2 2 2 2 4 7 4 4 5 3 9 9 4 3 2 6 9 12 14 13 12 7 4 2 1 13 17 12 12 11 15 17 18 17 15
Wind_Direction
326 329 334 341 340 337 349 305 267 141 166 171 201 236 232 257 264 272 273 275 277 276 208 214 211 210 192 190 221 215 223 227 222 182 195 201 196 146 134 144 174 155 162 255
325 329 335 341 343 359 322 302 284 313 196 208 226 243 250 247 253 258 264 265 272 271 195 209 195 226 194 186 207 204 211 257 269 256 144 223 177 76 86 95 49 168 147 220
327 329 335 339 338 340 324 283 279 332 339 287 253 243 240 249 246 251 256 265 269 277 273 201 199 212 203 201 199 216 144 234 173 200 193 176 125 160 161 126 126 194 199 131
326 326 334 337 330 324 298 241 207 185 284 282 273 288 276 265 251 246 252 261 237 248 274 254 179 211 212 181 188 194 149 219 14 302 241 340 169 132 109 108 154 126 164 139
328 326 333 338 334 329 200 285 344 325 297 279 285 270 223 235 256 248 257 246 230 245 266 308 182 184 183 172 123 153 174 192 75 312 274 333 280 150 141 142 203 159 141 115
330 330 331 339 346 341 317 348 331 229 254 305 288 278 238 238 251 260 236 238 274 264 0 333 307 200 169 141 128 143 145 119 83 263 326 324 224 176 167 185 180 157 128 146
326 330 328 334 345 359 314 296 302 272 271 334 302 315 304 293 227 238 227 230 143 357 316 293 262 307 165 149 166 146 163 135 113 262 323 262 183 95 146 119 112 115 115 113
323 328 327 327 330 329 309 281 274 289 300 325 297 329 343 339 326 191 322 73 62 3 298 308 24 340 50 164 166 170 169 148 143 132 198 267 186 170 116 131 151 130 116 108
319 320 327 325 326 329 316 286 233 267 295 249 331 316 329 2 311 358 340 41 42 18 278 20 166 169 150 132 162 171 177 152 125 133 179 226 214 172 117 103 101 133 125 127
315 317 322 324 326 331 325 276 294 282 290 264 327 333 21 313 309 317 111 324 20 38 330 24 219 226 140 130 142 165 168 181 174 190 197 279 233 145 106 93 211 146 140 141
317 318 321 325 324 332 333 283 282 254 288 292 282 329 347 338 327 333 325 354 350 2 18 9 289 111 224 78 242 142 133 140 189 166 145 249 287 148 132 200 117 142 131 135
320 324 319 320 319 329 337 284 328 320 276 290 298 284 278 276 290 323 319 342 15 17 15 17 343 347 109 144 237 218 200 163 177 163 205 201 97 127 138 111 117 126 126 128
327 324 323 323 319 322 335 292 299 291 273 286 231 238 246 238 224 247 295 356 357 353 356 293 278 340 0 1 200 195 210 159 160 57 293 141 131 115 110 119 129 130 130 133
315 319 315 319 320 322 328 298 297 287 292 277 294 350 213 217 183 189 232 313 328 337 323 301 304 341 8 330 277 183 189 125 175 233 294 44 156 134 128 120 132 133 136 137
311 306 305 307 314 319 302 264 268 280 288 309 296 308 275 190 250 312 248 291 320 351 339 344 312 329 2 298 359 32 26 344 136 219 200 143 192 140 135 128 145 144 139 139
340 327 309 309 319 332 296 228 139 15 357 285 291 337 291 241 177 206 267 270 287 325 7 314 294 334 29 315 333 26 20 12 360 261 155 142 123 113 138 123 136 140 138 138
351 344 326 314 313 320 289 297 295 333 320 259 283 255 201 236 201 281 272 226 263 306 266 196 282 317 356 319 304 326 14 338 334 353 351 60 130 162 122 108 105 112 112 117
324 317 309 304 302 282 267 179 279 251 261 277 280 282 164 202 174 159 190 215 234 293 266 320 162 302 296 270 356 15 356 351 354 356 352 298 68 56 91 121 122 120 121 122
308 303 295 287 223 316 2 328 314 251 289 304 309 304 6 226 222 186 155 168 170 236 199 257 344 234 223 215 33 19 27 335 299 338 351 11 92 100 91 69 330 115 122 120
310 287 286 346 4 304 290 214 212 208 203 227 256 277 284 352 245 218 127 170 220 183 214 152 232 250 288 291 329 14 330 328 333 354 348 357 36 175 153 152 177 145 129 125
305 323 323 286 112 255 234 292 260 179 230 215 233 240 295 319 15 7 23 266 194 202 216 172 243 259 229 266 276 266 304 317 309 309 318 352 1 136 123 113 96 123 126 127
301 284 278 264 268 285 289 237 203 225 242 173 217 207 199 291 321 64 6 349 351 272 199 204 236 314 173 200 243 270 260 268 295 293 311 323 17 181 149 148 145 153 135 131
279 202 255 231 198 4 246 224 205 238 345 345 352 160 153 220 306 90 72 297 262 267 240 222 232 196 194 199 212 245 241 239 262 280 297 303 334 158 149 145 144 141 132 133
258 250 287 222 194 238 206 267 338 6 346 349 334 17 351 337 183 244 209 196 235 263 216 242 258 257 229 206 203 217 233 232 232 234 255 277 145 154 150 138 141 138 135 132
268 266 237 230 245 292 289 118 49 29 331 347 3 350 9 303 305 187 304 241 215 229 227 264 13 348 343 266 217 205 215 235 226 213 234 213 125 126 128 130 129 128 133 132
241 239 266 308 309 283 357 347 108 356 9 328 292 13 296 257 257 241 198 225 205 137 13 15 3 355 345 338 295 215 223 229 239 223 205 143 141 146 146 141 140 136 135 133
253 255 323 288 288 281 286 319 44 349 333 262 297 222 218 224 234 245 243 242 283 318 317 325 35 11 346 336 336 332 345 34 71 175 141 151 146 139 141 140 146 130 118 115